スコッティ彗星

P/2013 A2 ( Scotti )

English version
Home page
Updated on September 8, 2013

---------------------------------------------------------------------

・ プロフィール

発見日 2013年1月6日
発見光度 19.5等
発見者 J. V. Scotti (Spacewatch, Kitt Peak)

・ 写真集

・ 軌道要素

Epoch 2013 Jan. 28.0 TT = JDT 2456320.5
T 2013 Feb. 7.29231 TT                                  MPC
q   2.1774064            (2000.0)            P               Q
n   0.12312761     Peri.  134.50435     -0.64750039     -0.76205323
a   4.0015883      Node   355.84235     +0.68146695     -0.57650953
e   0.4558645      Incl.    3.36618     +0.34109535     -0.29480780
P   8.00
From 89 observations 2013 Jan. 6-June 1, mean residual 0".4.

・ 光度変化

        m1 = 12.5 + 5 logΔ + 20.0 log r

---------------------------------------------------------------------

軌道要素はM.P.E.C. 2013-L39に掲載されたものです。
光度グラフはComet for Windowsで作成したものです。

---------------------------------------------------------------------

Copyright(C) Seiichi Yoshida (comet@aerith.net). All rights reserved.